Weather reports worldwide

Advertisment
St. James's Park, United Kingdom (3770): temperature & dewpoint: 13.11.2018 20:00:00 - 19.11.2018 20:00:00 (GMT)St. James's Park, United Kingdom (3770): temperature -20cm & temperature -100cm: 13.11.2018 20:00:00 - 19.11.2018 20:00:00 (GMT)St. James's Park, United Kingdom (3770): precipitation: 13.11.2018 20:00:00 - 19.11.2018 20:00:00 (GMT)
Date & Time tt [°C] td [°C] tt -20cm [°C] tt -100cm [°C] rr [mm]
19.11.2018 20:00:00 6,0 3,4 - - 0,0
19.11.2018 19:00:00 6,0 3,5 - - 1,2
19.11.2018 18:00:00 6,8 2,9 - - 0,0
19.11.2018 17:00:00 7,4 3,3 - - 0,0
19.11.2018 16:00:00 7,1 3,7 - - 0,4
19.11.2018 15:00:00 8,5 2,8 - - 0,0
19.11.2018 14:00:00 8,4 4,4 - - 0,4
19.11.2018 13:00:00 8,6 3,3 - - 0,0
19.11.2018 12:00:00 8,3 3,5 - - 0,0
19.11.2018 11:00:00 7,8 4,3 - - 0,2
19.11.2018 10:00:00 8,4 3,6 - - 0,0
19.11.2018 09:00:00 8,5 2,7 9,5 12,2 0,0
19.11.2018 08:00:00 8,3 2,9 - - 0,0
19.11.2018 07:00:00 8,1 2,8 - - 0,0
19.11.2018 06:00:00 8,0 2,6 - - 0,0
19.11.2018 05:00:00 8,0 2,6 - - 0,0
19.11.2018 04:00:00 7,9 2,2 - - 0,0
19.11.2018 03:00:00 7,5 3,0 - - 0,0
19.11.2018 02:00:00 7,1 2,2 - - 0,0
19.11.2018 01:00:00 6,4 1,0 - - 0,0
19.11.2018 00:00:00 6,8 1,1 - - 0,0
18.11.2018 23:00:00 6,8 1,0 - - 0,0
18.11.2018 22:00:00 7,2 1,5 - - 0,0
18.11.2018 21:00:00 7,7 2,4 - - 0,0
18.11.2018 20:00:00 7,8 2,8 - - 0,0
18.11.2018 19:00:00 7,8 3,0 - - 0,0
18.11.2018 18:00:00 8,6 3,3 - - 0,0
18.11.2018 17:00:00 9,4 3,3 - - 0,0
18.11.2018 16:00:00 10,4 2,9 - - 0,0
18.11.2018 15:00:00 10,9 3,0 - - 0,0
18.11.2018 14:00:00 11,1 3,3 - - 0,0
18.11.2018 13:00:00 11,2 3,6 - - 0,0
18.11.2018 12:00:00 11,3 5,3 - - 0,0
18.11.2018 11:00:00 10,5 5,8 - - 0,0
18.11.2018 10:00:00 8,5 5,5 - - 0,0
18.11.2018 09:00:00 6,9 4,6 10,2 12,2 0,0
18.11.2018 08:00:00 6,1 4,1 - - 0,0
18.11.2018 07:00:00 6,2 4,3 - - 0,0
18.11.2018 06:00:00 6,2 4,1 - - 0,0
18.11.2018 05:00:00 6,6 4,0 - - 0,0
18.11.2018 04:00:00 7,6 4,7 - - 0,0
18.11.2018 03:00:00 7,7 4,6 - - 0,0
18.11.2018 02:00:00 7,9 4,5 - - 0,0
18.11.2018 01:00:00 8,4 4,8 - - 0,0
18.11.2018 00:00:00 8,3 4,7 - - 0,0
17.11.2018 23:00:00 8,5 5,3 - - 0,0
17.11.2018 22:00:00 8,3 5,0 - - 0,0
17.11.2018 21:00:00 7,9 5,4 - - 0,0
17.11.2018 20:00:00 8,3 5,1 - - 0,0
17.11.2018 19:00:00 8,7 5,5 - - 0,0
17.11.2018 18:00:00 8,8 5,6 - - 0,0
17.11.2018 17:00:00 9,1 6,1 - - 0,0
17.11.2018 16:00:00 9,6 5,3 - - 0,0
17.11.2018 15:00:00 10,7 5,8 - - 0,0
17.11.2018 14:00:00 11,3 5,0 - - 0,0
17.11.2018 13:00:00 11,5 4,4 - - 0,0
17.11.2018 12:00:00 11,4 6,7 - - 0,0
17.11.2018 11:00:00 9,7 6,0 - - 0,0
17.11.2018 10:00:00 8,7 5,4 - - 0,0
17.11.2018 09:00:00 8,1 5,8 11,0 12,2 0,0
17.11.2018 08:00:00 7,6 5,4 - - 0,0
17.11.2018 07:00:00 7,6 5,3 - - 0,0
17.11.2018 06:00:00 7,5 5,6 - - 0,0
17.11.2018 05:00:00 8,0 6,3 - - 0,0
17.11.2018 04:00:00 8,7 8,1 - - 0,0
17.11.2018 03:00:00 9,0 8,3 - - 0,0
17.11.2018 02:00:00 9,4 8,6 - - 0,0
17.11.2018 01:00:00 9,6 8,8 - - 0,0
17.11.2018 00:00:00 9,5 8,9 - - 0,0
16.11.2018 23:00:00 9,2 8,8 - - 0,0
16.11.2018 22:00:00 9,2 8,7 - - 0,0
16.11.2018 21:00:00 9,4 8,8 - - 0,0
16.11.2018 20:00:00 9,4 8,8 - - 0,0
16.11.2018 19:00:00 9,4 8,7 - - 0,0
16.11.2018 18:00:00 9,4 8,7 - - 0,0
16.11.2018 17:00:00 10,0 9,2 - - 0,0
16.11.2018 16:00:00 9,8 9,0 - - 0,0
16.11.2018 15:00:00 10,0 9,1 - - 0,0
16.11.2018 14:00:00 10,2 9,2 - - 0,0
16.11.2018 13:00:00 10,4 9,4 - - 0,0
16.11.2018 12:00:00 10,3 9,2 - - 0,0
16.11.2018 11:00:00 10,6 9,3 - - 0,0
16.11.2018 10:00:00 10,5 9,5 - - 0,0
16.11.2018 09:00:00 10,5 9,7 10,9 12,2 0,0
16.11.2018 08:00:00 10,5 9,8 - - 0,0
16.11.2018 07:00:00 10,6 10,0 - - 0,0
16.11.2018 06:00:00 10,7 10,0 - - 0,0
16.11.2018 05:00:00 11,1 10,3 - - 0,0
16.11.2018 04:00:00 11,1 10,3 - - 0,0
16.11.2018 03:00:00 11,3 10,3 - - 0,0
16.11.2018 02:00:00 11,7 10,7 - - 0,0
16.11.2018 01:00:00 11,6 10,8 - - 0,0
16.11.2018 00:00:00 11,5 10,7 - - 0,0
15.11.2018 23:00:00 11,2 10,4 - - 0,0
15.11.2018 22:00:00 11,1 10,1 - - 0,0
15.11.2018 21:00:00 11,2 10,1 - - 0,0
15.11.2018 20:00:00 11,7 10,4 - - 0,0
15.11.2018 19:00:00 12,6 11,0 - - 0,0
15.11.2018 18:00:00 12,9 11,1 - - 0,0
15.11.2018 17:00:00 13,6 11,5 - - 0,0
15.11.2018 16:00:00 14,4 12,0 - - 0,0
15.11.2018 15:00:00 15,0 12,3 - - 0,0
15.11.2018 14:00:00 14,9 12,4 - - 0,0
15.11.2018 13:00:00 14,4 12,1 - - 0,0
15.11.2018 12:00:00 14,0 11,8 - - 0,0
15.11.2018 11:00:00 13,9 11,5 - - 0,0
15.11.2018 10:00:00 13,5 10,9 - - 0,0
15.11.2018 09:00:00 12,9 11,3 10,2 12,2 0,0
15.11.2018 08:00:00 12,5 11,3 - - 0,0
15.11.2018 07:00:00 12,5 11,5 - - 0,0
15.11.2018 06:00:00 12,1 11,1 - - 0,0
15.11.2018 05:00:00 12,3 11,5 - - 0,0
15.11.2018 04:00:00 12,0 11,3 - - 0,0
15.11.2018 03:00:00 12,3 11,6 - - 0,0
15.11.2018 02:00:00 12,1 11,8 - - 0,0
15.11.2018 01:00:00 11,2 11,0 - - 0,0
15.11.2018 00:00:00 10,7 10,5 - - 0,0
14.11.2018 23:00:00 9,7 9,4 - - 0,0
14.11.2018 22:00:00 9,3 8,7 - - 0,0
14.11.2018 21:00:00 10,2 9,6 - - 0,0
14.11.2018 20:00:00 9,9 8,3 - - 0,0
14.11.2018 19:00:00 10,7 8,5 - - 0,0
14.11.2018 18:00:00 11,7 7,6 - - 0,0
14.11.2018 17:00:00 11,8 7,6 - - 0,0
14.11.2018 16:00:00 12,8 8,0 - - 0,0
14.11.2018 15:00:00 13,3 7,9 - - 0,0
14.11.2018 14:00:00 13,7 7,5 - - 0,0
14.11.2018 13:00:00 14,0 7,6 - - 0,0
14.11.2018 12:00:00 14,3 8,3 - - 0,0
14.11.2018 11:00:00 14,8 9,1 - - 0,0
14.11.2018 10:00:00 12,9 9,2 - - 0,0
14.11.2018 09:00:00 11,4 9,0 10,0 12,2 0,0
14.11.2018 08:00:00 11,0 8,7 - - 0,0
14.11.2018 07:00:00 11,2 8,4 - - 0,0
14.11.2018 06:00:00 11,0 8,5 - - 0,0
14.11.2018 05:00:00 11,2 9,1 - - 0,0
14.11.2018 04:00:00 11,2 9,3 - - 0,2
14.11.2018 03:00:00 10,8 9,1 - - 0,0
14.11.2018 02:00:00 10,9 8,9 - - 0,0
14.11.2018 01:00:00 10,7 8,9 - - 0,0
14.11.2018 00:00:00 10,3 8,8 - - 0,0
13.11.2018 23:00:00 9,9 8,5 - - 0,0
13.11.2018 22:00:00 10,0 8,4 - - 0,0
13.11.2018 21:00:00 9,9 8,2 - - 0,0
13.11.2018 20:00:00 10,9 8,4 - - 0,0

tt = temperature
td = dewpoint
tt -20cm = temperature -20cm
tt -100cm = temperature -100cm
rr = precipitation

Next stations